Regional Weather Roundup
Issued by NWS

Home | Current Version | Previous Version | Graphics & Text | Print | Product List | Glossary On
Versions: 1 2 3 4 5 6 7 8 9 10 11 12 13 14 15 16 17 18 19 20 21 22 23 24 25 26 27 28 29 30 31 32 33 34 35 36 37 38 39 40 41 42 43 44 45 46 47 48 49 50
000
ASUS43 KLOT 250406
RWRIL

ILLINOIS REGIONAL WEATHER ROUNDUP
NATIONAL WEATHER SERVICE CHICAGO/ROMEOVILLE IL
1000 PM CST WED DEC 24 2014

NOTE: "FAIR" INDICATES FEW OR NO CLOUDS BELOW 12,000 FEET WITH NO
SIGNIFICANT WEATHER AND/OR OBSTRUCTIONS TO VISIBILITY.

* THESE STATIONS ARE NOT UNDER NWS QUALITY CONTROL. THEY ALSO MAY NOT
  REPORT WEATHER SUCH AS PRECIPITATION OR FOG.

ILZ001-002-007-009-015-016-024-250500-
NORTHWEST ILLINOIS

CITY           SKY/WX    TMP DP  RH WIND       PRES   REMARKS
MOLINE         CLOUDY    35  29  78 W13G21    29.70R WCI  26
STERLING*      CLOUDY    36  30  80 W13       29.66S WCI  27
SAVANNA*       CLOUDY    37  32  82 W10G16    29.67R WCI  29
$$

ILZ003-004-008-010-011-017-018-250500-
NORTH CENTRAL ILLINOIS

CITY           SKY/WX    TMP DP  RH WIND       PRES   REMARKS
ROCKFORD       CLOUDY    35  31  85 W10       29.64R WCI  27
FREEPORT*      CLOUDY    34  32  92 W9        29.65R WCI  27
ROCHELLE*      CLOUDY    34  32  91 W14       29.64R WCI  25
DE KALB*       CLOUDY    33  31  94 W15       29.62R WCI  23
PERU*          CLOUDY    37  34  89 W15G22    29.67R WCI  28
$$

ILZ005-006-012>014-019>023-250500-
NORTHEAST ILLINOIS

CITY           SKY/WX    TMP DP  RH WIND       PRES   REMARKS
CHICAGO-OHARE  CLOUDY    36  32  85 W12       29.58R WCI  28
CHICAGO-MIDWAY CLOUDY    38  34  85 W12       29.59R WCI  30
AURORA         CLOUDY    36  32  85 W16       29.62R WCI  26
LANSING*       CLOUDY    36  33  90 W13G20    29.61R WCI  27
JOLIET*        CLOUDY    35  32  89 W10       29.63R WCI  28
WAUKEGAN       CLOUDY    36  31  82 W8        29.56R WCI  30
DUPAGE AIRPORT CLOUDY    36  32  85 W13       29.60R WCI  27
KANKAKEE*      CLOUDY    36  34  93 W16       29.64S WCI  26
WHEELING       CLOUDY    36  32  85 W9G18     29.59R WCI  29
MORRIS*        CLOUDY    36  35  96 W14       29.63R WCI  27
ROMEOVILLE*    CLOUDY    35  34  93 W15       29.62R WCI  26
NORTHERLY ISL    N/A     37  32  82 W13         N/A  WCI  29
$$

LMZ740>746-250500-
SOUTHERN LAKE MICHIGAN

STATION/POSITION SKY/WX   TEMP    WIND        PRES    VSBY  WAVE
                          AIR SEA DIR/SP/G                  HT/PER
                          (F)     (DEG/KT/KT) (MB)    (MI)  (FT/S)
WAUKEGAN HARBOR            36                   N/A
HARRISON CRIB              36     270/ 18/ 21   N/A
BURNHAM HARBOR             37     240/ 12/ 14   N/A
CALUMET HARBOR             37     250/  8/ 13 1000.9R
MICHIGAN CITY              36     220/ 21/ 25   N/A
$$

ILZ025>027-034>036-040-047-049-050-058-095>099-250500-
WEST-CENTRAL ILLINOIS

CITY           SKY/WX    TMP DP  RH WIND       PRES   REMARKS
QUINCY         CLOUDY    35  29  78 W13       29.78S WCI  26
GALESBURG*     CLOUDY    34  32  92 W14       29.73R WCI  25
MACOMB*        CLOUDY    35  32  88 W15       29.77R WCI  25
JACKSONVILLE*  LGT RAIN  37  34  89 W9        29.80R WCI  30
PITTSFIELD*    CLOUDY    37  32  82 W8        29.81R WCI  31
$$

ILZ028>032-037-038-041>044-048-051>054-059>061-250500-
CENTRAL ILLINOIS

CITY           SKY/WX    TMP DP  RH WIND       PRES   REMARKS
PONTIAC        CLOUDY    37  34  90 W18       29.68R WCI  27
BLOOMINGTON    CLOUDY    36  34  92 W13       29.70R WCI  27
DECATUR        CLOUDY    37  33  85 W10G23    29.75R WCI  30
PEORIA         CLOUDY    38  31  76 W10       29.72R WCI  31
LACON*         CLOUDY    37  32  82 W12       29.69R WCI  29
LINCOLN*       CLOUDY    38  33  81 W12G17    29.74R WCI  31
SPRINGFIELD    CLOUDY    37  32  82 W14       29.77R WCI  28
TAYLORVILLE    CLOUDY    36  32  87 W13       29.79R WCI  27
$$

ILZ033-039-045-046-055>057-062-063-250500-
EAST-CENTRAL ILLINOIS

CITY           SKY/WX    TMP DP  RH WIND       PRES   REMARKS
CHAMPAIGN      CLOUDY    36  34  92 W15       29.71R WCI  27
DANVILLE*      CLOUDY    35  34  96 W14       29.67R FOG     WCI  26
RANTOUL*       CLOUDY    37  36  94 W13       29.69S FOG     WCI  29
MATTOON        CLOUDY    36  34  92 W9        29.74S WCI  29
PARIS*         CLOUDY    36  35  95 W13G18    29.74R WCI  28
$$

ILZ079-100>102-250500-
SOUTHWEST ILLINOIS

CITY           SKY/WX    TMP DP  RH WIND       PRES   REMARKS
ALTON          CLOUDY    38  32  80 W10G16    29.84R WCI  30
BELLEVILLE     CLOUDY    38  37  94 W9        29.84R WCI  31
CAHOKIA*       CLOUDY    38  35  89 W6        29.85R WCI  33
SPARTA*        CLOUDY    37  34  90 SW6       29.87R WCI  32
$$

ILZ064>066-069>071-074>076-080>082-084>086-088>090-092>094-250500-
SOUTH-CENTRAL ILLINOIS

CITY           SKY/WX    TMP DP  RH WIND       PRES   REMARKS
CARBONDALE     CLOUDY    38  34  85 SW7       29.88R WCI  33
CAIRO*         CLOUDY    42  36  77 SW7       29.90S
EFFINGHAM*     DRIZZLE   37  34  89 SW10      29.81R WCI  30
MARION         CLOUDY    39  36  87 W6        29.88R WCI  35
MT. VERNON     CLOUDY    37  32  81 SW10      29.85R WCI  30
CENTRALIA*     CLOUDY    37  33  85 W8        29.84R WCI  31
SALEM*         CLOUDY    39  35  86 SW13      29.83R WCI  32
METROPOLIS*    CLOUDY    41  37  88 W6        29.88R
$$

ILZ067-068-072-073-078-083-087-091-250500-
SOUTHEAST ILLINOIS

CITY           SKY/WX    TMP DP  RH WIND       PRES   REMARKS
LAWRENCEVILLE  CLOUDY    38  35  89 W13       29.80R WCI  30
FLORA*         MOCLDY    37  35  90 W10       29.83R WCI  30
FAIRFIELD*     CLOUDY    38  35  87 W5        29.83R WCI  35
HARRISBURG*    CLOUDY    39  35  87 W9        29.87R WCI  32
ROBINSON*      CLOUDY    37  35  90 W17G23    29.80R WCI  28
CARMI*         CLOUDY    40  37  89 W9        29.84R
$$

ABBREVIATIONS USED IN REMARKS
   TC - TEMPERATURE IN CELSIUS
  WCI - WIND CHILL INDEX
   HX - HEAT INDEX
  VSB - VISIBILITY
$$



USA.gov is the U.S. government's official web portal to all federal, state and local government web resources and services.